Preview of NWS' New Version of Forecast
This preview is not operational and should not be used for support decisions.

Regional Weather Roundup (RWR)

Issued by National Weather Service (NWS)

                            
000
ASUS45 KBOI 201710
RWRID 

IDAHO REGIONAL WEATHER ROUNDUP
NATIONAL WEATHER SERVICE BOISE ID
1100 AM MDT SAT APR 20 2019

NOTE: "FAIR" INDICATES FEW OR NO CLOUDS BELOW 12000 FEET
WITH NO SIGNIFICANT WEATHER AND/OR OBSTRUCTIONS TO VISIBILITY

IDZ012-014-201800-
SOUTHWEST IDAHO

  
CITY           SKY/WX    TMP DP  RH WIND       PRES   REMARKS
BOISE          PTSUNNY   62  48  60 NE6       29.77F                  
CALDWELL       CLOUDY    60  49  66 W7        29.78S                  
MOUNTAIN HOME  PTSUNNY   63  52  67 NW10      29.77F                  
$$

IDZ016-017-201800-
SOUTHCENTRAL IDAHO

  
CITY           SKY/WX    TMP DP  RH WIND       PRES   REMARKS
BURLEY         CLOUDY    63  37  38 W9        29.79F                  
JEROME         CLOUDY    61  47  59 SW10      29.81F                  
TWIN FALLS     CLOUDY    60  44  55 W14       29.81F                  
$$

IDZ019>023-201800-
SOUTHEAST IDAHO

  
CITY           SKY/WX    TMP DP  RH WIND       PRES   REMARKS
IDAHO FALLS    CLOUDY    65  36  34 S18G26    29.80S                  
POCATELLO      PTSUNNY   63  39  41 SW16      29.82R                  
REXBURG        PTSUNNY   64  36  35 S8        29.79S                  
$$

IDZ006-010-011-018-031-032-201800-
CENTRAL IDAHO MOUNTAINS

  
CITY           SKY/WX    TMP DP  RH WIND       PRES   REMARKS
MCCALL         LGT RAIN  44  41  89 CALM      29.80S                  
HAILEY         MOSUNNY   57  39  51 CALM      29.83S                  
STANLEY          N/A     46  35  65 CALM      29.83F                  
SALMON         PTSUNNY   59  44  57 N7        29.74F                  
CHALLIS        MOSUNNY   61  43  51 CALM      29.75F                  
$$

IDZ002-004-006-007-026-201800-
NORTHERN IDAHO

  
CITY           SKY/WX    TMP DP  RH WIND       PRES   REMARKS
LEWISTON       CLOUDY    56  49  77 MISG      29.85R                  
LOWELL           N/A     52  51  97 CALM      29.83R                  
COEUR D'ALENE  CLOUDY    50  47  89 NW3       29.85S                  
MULLAN PASS    LGT RAIN  37  36  96 VRB5      29.82S VSB 1/4 WCI  33  
$$